FW2905 Weather Reports


Display with metric or nautical units.
time (UTC)temp
F
wind
direction
speed
MPH
gust
MPH
rain 1hr
in
rain 24hr
in
rain mn
in
humidity
%
barometer
mb
20200401054546 36 355 5.0 10.0 0.00 0.00 0.00 74 1019.1
20200401054041 36 13 3.0 11.0 0.00 0.00 0.00 74 1019.1
20200401053537 36 44 3.0 11.0 0.00 0.00 0.00 74 1019.2
20200401053049 36 14 5.0 9.0 0.00 0.00 0.00 74 1019.2
20200401052534 36 26 4.0 12.0 0.00 0.00 0.00 73 1019.3
20200401052032 36 334 5.0 12.0 0.00 0.00 0.00 73 1019.4
20200401051554 36 10 3.0 10.0 0.00 0.00 0.00 73 1019.4
20200401051047 36 355 4.0 10.0 0.00 0.00 0.00 74 1019.4
20200401050530 36 57 4.0 11.0 0.00 0.00 0.00 74 1019.5
20200401050058 36 45 4.0 10.0 0.00 0.00 0.00 74 1019.3
20200401045529 36 10 5.0 9.0 0.00 0.00 0.00 74 1019.4
20200401045034 36 14 5.0 9.0 0.00 0.00 0.00 74 1019.4
20200401044553 36 5 4.0 10.0 0.00 0.00 0.00 74 1019.4
20200401044029 36 26 5.0 12.0 0.00 0.00 0.00 73 1019.3
20200401043528 36 350 7.0 12.0 0.00 0.00 0.00 73 1019.3
20200401043028 36 24 6.0 12.0 0.00 0.00 0.00 73 1019.3
20200401042531 36 30 7.0 12.0 0.00 0.00 0.00 73 1019.2
20200401042027 36 11 3.0 12.0 0.00 0.00 0.00 73 1019.3
20200401041544 36 24 5.0 12.0 0.00 0.00 0.00 73 1019.4
20200401041031 36 43 5.0 12.0 0.00 0.00 0.00 73 1019.4
20200401040527 36 45 6.0 12.0 0.00 0.00 0.00 73 1019.3
20200401040102 36 51 5.0 13.0 0.00 0.00 0.00 73 1019.3
20200401035526 36 26 6.0 13.0 0.00 0.00 0.00 73 1019.3
20200401035032 36 42 7.0 12.0 0.00 0.00 0.00 73 1019.3
20200401034547 35 22 7.0 12.0 0.00 0.00 0.00 73 1019.5
20200401034036 35 360 5.0 12.0 0.00 0.00 0.00 73 1019.4
20200401033535 36 20 4.0 15.0 0.00 0.00 0.00 73 1019.4
20200401033031 36 23 7.0 15.0 0.00 0.00 0.00 73 1019.3
20200401032525 36 42 5.0 12.0 0.00 0.00 0.00 73 1019.4
20200401032025 36 348 5.0 12.0 0.00 0.00 0.00 73 1019.4
20200401031614 35 22 6.0 12.0 0.00 0.00 0.00 73 1019.3
20200401031025 35 38 4.0 12.0 0.00 0.00 0.00 73 1019.4
20200401030524 35 51 6.0 11.0 0.00 0.00 0.00 73 1019.5
20200401030029 35 360 5.0 14.0 0.00 0.00 0.00 73 1019.5
20200401025524 35 360 8.0 15.0 0.00 0.00 0.00 73 1019.5
20200401025023 35 42 7.0 14.0 0.00 0.00 0.00 73 1019.5
20200401024545 35 24 5.0 14.0 0.00 0.00 0.00 73 1019.4
20200401024025 35 23 9.0 13.0 0.00 0.00 0.00 74 1019.5
20200401023526 35 26 9.0 13.0 0.00 0.00 0.00 74 1019.4
20200401023040 35 39 8.0 13.0 0.00 0.00 0.00 74 1019.4
20200401022521 35 24 7.0 14.0 0.00 0.00 0.00 74 1019.5
20200401022021 35 37 7.0 14.0 0.00 0.00 0.00 74 1019.4
20200401021549 35 5 6.0 12.0 0.00 0.00 0.00 74 1019.5
20200401021025 35 26 8.0 14.0 0.00 0.00 0.00 74 1019.5
20200401020519 35 26 6.0 14.0 0.00 0.00 0.00 75 1019.6
20200401020022 35 25 6.0 14.0 0.00 0.00 0.00 75 1019.5
20200401015519 35 5 8.0 13.0 0.00 0.00 0.00 75 1019.4
20200401015024 35 36 5.0 15.0 0.00 0.00 0.00 75 1019.4
20200401014527 35 59 7.0 15.0 0.00 0.00 0.00 75 1019.4
20200401014021 35 34 7.0 12.0 0.00 0.00 0.00 75 1019.4
20200401013526 35 348 7.0 12.0 0.00 0.00 0.00 75 1019.5
20200401013130 35 5 6.0 12.0 0.00 0.00 0.00 75 1019.4
20200401012602 35 323 4.0 12.0 0.00 0.00 0.00 75 1019.4
20200401012018 35 39 5.0 13.0 0.00 0.00 0.00 75 1019.3
20200401011519 35 5 6.0 13.0 0.00 0.00 0.00 75 1019.4
20200401011036 35 16 5.0 14.0 0.00 0.00 0.00 74 1019.4
20200401010517 35 30 5.0 13.0 0.00 0.00 0.00 75 1019.4
20200401010023 35 38 6.0 12.0 0.00 0.00 0.00 75 1019.3
20200401005516 35 355 7.0 12.0 0.00 0.00 0.00 74 1019.3
20200401005016 35 17 6.0 13.0 0.00 0.00 0.00 74 1019.3
20200401004525 35 344 6.0 14.0 0.00 0.00 0.00 74 1019.3
20200401004015 35 10 5.0 14.0 0.00 0.00 0.00 74 1019.4
20200401003515 35 5 6.0 12.0 0.00 0.00 0.00 74 1019.5
20200401003023 35 32 5.0 11.0 0.00 0.00 0.00 74 1019.5
20200401002521 35 5 5.0 11.0 0.00 0.00 0.00 74 1019.6
20200401002019 35 42 5.0 11.0 0.00 0.00 0.00 74 1019.5
20200401001524 35 46 4.0 11.0 0.00 0.00 0.00 74 1019.6
20200401001031 35 22 5.0 13.0 0.00 0.00 0.00 74 1019.5
20200401000521 35 18 5.0 14.0 0.00 0.00 0.00 73 1019.5
20200401000101 35 26 7.0 14.0 0.00 0.00 0.00 73 1019.5
20200331235513 35 5 6.0 13.0 0.00 0.00 0.00 73 1019.5
20200331235017 35 38 4.0 15.0 0.00 0.00 0.00 73 1019.5
20200331234520 35 15 6.0 15.0 0.00 0.00 0.00 73 1019.5
20200331234035 35 360 6.0 12.0 0.00 0.00 0.00 73 1019.6
20200331233517 35 15 7.0 13.0 0.00 0.00 0.00 73 1019.5
20200331233037 35 30 7.0 13.0 0.00 0.00 0.00 73 1019.6
20200331232510 35 39 4.0 13.0 0.00 0.00 0.00 73 1019.6
20200331232018 35 39 7.0 14.0 0.00 0.00 0.00 73 1019.6
20200331231529 35 12 8.0 15.0 0.00 0.00 0.00 73 1019.6
20200331231010 35 11 7.0 15.0 0.00 0.00 0.00 73 1019.7
20200331230509 35 52 8.0 14.0 0.00 0.00 0.00 73 1019.6
20200331230010 35 55 8.0 15.0 0.00 0.00 0.00 73 1019.6
20200331225509 35 15 8.0 15.0 0.00 0.00 0.00 73 1019.7
20200331225012 35 10 6.0 15.0 0.00 0.00 0.00 73 1019.6
20200331224516 35 16 8.0 15.0 0.00 0.00 0.00 74 1019.5
20200331224014 35 34 7.0 13.0 0.00 0.00 0.00 73 1019.5
20200331223508 36 27 6.0 12.0 0.00 0.00 0.00 74 1019.3
20200331223009 36 40 7.0 12.0 0.00 0.00 0.00 74 1019.3
20200331222507 36 344 5.0 12.0 0.00 0.00 0.00 74 1019.3
20200331222007 36 26 7.0 14.0 0.00 0.00 0.00 74 1019.3
20200331221520 36 26 7.0 14.0 0.00 0.00 0.00 74 1019.3
20200331221015 36 31 6.0 13.0 0.00 0.00 0.00 74 1019.3
20200331220512 36 28 6.0 13.0 0.00 0.00 0.00 74 1019.3
20200331220010 36 23 6.0 13.0 0.00 0.00 0.00 74 1019.3
20200331215506 36 65 8.0 15.0 0.00 0.00 0.00 74 1019.3
20200331215005 36 44 5.0 16.0 0.00 0.00 0.00 74 1019.2
20200331214511 36 30 10.0 16.0 0.00 0.00 0.00 74 1019.2
20200331214008 35 11 8.0 14.0 0.00 0.00 0.00 74 1019.2
20200331213503 36 5 7.0 14.0 0.00 0.00 0.00 74 1019.2
20200331213009 36 25 7.0 14.0 0.00 0.00 0.00 75 1019.1
20200331212510 36 42 8.0 14.0 0.00 0.00 0.00 74 1019.1
20200331212002 36 9 7.0 14.0 0.00 0.00 0.00 74 1019.0
20200331211504 36 336 8.0 14.0 0.00 0.00 0.00 74 1019.0
20200331211002 36 17 8.0 14.0 0.00 0.00 0.00 74 1019.0
20200331210502 36 5 5.0 13.0 0.00 0.00 0.00 74 1019.0
20200331210002 36 18 7.0 15.0 0.00 0.00 0.00 74 1019.0
20200331205503 36 5 7.0 15.0 0.00 0.00 0.00 74 1018.9
20200331205001 36 38 7.0 15.0 0.00 0.00 0.00 74 1019.0
20200331204501 36 18 9.0 15.0 0.00 0.00 0.00 74 1018.9
20200331204100 36 20 7.0 14.0 0.00 0.00 0.00 74 1019.0
20200331203559 36 26 8.0 14.0 0.00 0.00 0.00 74 1018.9
20200331203112 36 18 6.0 15.0 0.00 0.00 0.00 74 1018.9
20200331202558 36 34 8.0 15.0 0.00 0.00 0.00 74 1018.9
20200331202102 36 15 8.0 15.0 0.00 0.00 0.00 74 1019.0
20200331201600 36 5 9.0 15.0 0.00 0.00 0.00 74 1018.9
20200331201057 36 37 9.0 15.0 0.00 0.00 0.00 74 1018.9
20200331200604 36 14 7.0 14.0 0.00 0.00 0.00 74 1018.8
20200331200215 36 355 9.0 14.0 0.00 0.00 0.00 74 1018.9
20200331195610 36 29 8.0 15.0 0.00 0.00 0.00 74 1018.9
20200331195056 36 5 9.0 15.0 0.00 0.00 0.00 75 1018.9
20200331194718 36 5 7.0 16.0 0.00 0.00 0.00 75 1019.0
20200331194054 36 26 10.0 16.0 0.00 0.00 0.00 75 1019.0
20200331193602 36 41 8.0 16.0 0.00 0.00 0.00 76 1019.0
20200331193125 35 5 7.0 17.0 0.00 0.00 0.00 76 1019.0
20200331192552 36 26 7.0 17.0 0.00 0.00 0.00 76 1019.0
20200331192059 36 16 8.0 14.0 0.00 0.00 0.00 76 1019.0
20200331191716 36 34 7.0 13.0 0.00 0.00 0.00 77 1019.1
20200331191055 36 31 6.0 13.0 0.00 0.00 0.00 77 1019.1
20200331190552 36 83 6.0 13.0 0.00 0.00 0.00 77 1019.2
20200331190124 36 44 8.0 12.0 0.00 0.00 0.00 77 1019.2
20200331185550 36 16 8.0 12.0 0.00 0.00 0.00 78 1019.2
20200331185107 35 45 7.0 14.0 0.00 0.00 0.00 77 1019.3
20200331184743 35 28 8.0 14.0 0.00 0.00 0.00 78 1019.3
20200331184052 35 350 8.0 13.0 0.00 0.00 0.00 78 1019.4
20200331183550 35 42 7.0 13.0 0.00 0.00 0.00 78 1019.4
20200331183056 35 16 6.0 13.0 0.00 0.00 0.00 78 1019.5
20200331182547 35 5 7.0 13.0 0.00 0.00 0.00 78 1019.4
20200331182052 35 33 7.0 14.0 0.00 0.00 0.00 78 1019.4
20200331181642 35 47 7.0 14.0 0.00 0.00 0.00 78 1019.4
20200331181048 35 348 6.0 12.0 0.00 0.00 0.00 78 1019.5
20200331180545 36 44 6.0 11.0 0.00 0.00 0.00 78 1019.4
20200331180302 36 19 7.0 11.0 0.00 0.00 0.00 78 1019.4
20200331175545 36 34 7.0 11.0 0.00 0.00 0.00 78 1019.4
20200331175044 36 32 5.0 13.0 0.00 0.00 0.00 78 1019.4
20200331174547 36 25 6.0 13.0 0.00 0.00 0.00 77 1019.5
20200331174043 36 69 7.0 12.0 0.00 0.00 0.00 77 1019.4
20200331173543 36 348 4.0 15.0 0.00 0.00 0.00 77 1019.5
20200331173105 36 355 6.0 15.0 0.00 0.00 0.00 77 1019.5
20200331172542 36 36 7.0 13.0 0.00 0.00 0.00 77 1019.6
20200331172041 36 35 7.0 13.0 0.00 0.00 0.00 77 1019.6
20200331171614 36 32 7.0 13.0 0.00 0.00 0.00 77 1019.7
20200331171044 36 44 6.0 13.0 0.00 0.00 0.00 77 1019.7
20200331170546 36 50 6.0 13.0 0.00 0.00 0.00 76 1019.6
20200331170053 36 53 8.0 12.0 0.00 0.00 0.00 76 1019.8
20200331165540 36 23 6.0 11.0 0.00 0.00 0.00 76 1019.8
20200331165042 37 43 5.0 11.0 0.00 0.00 0.00 76 1019.8
20200331164544 37 13 5.0 12.0 0.00 0.00 0.00 76 1019.8
20200331164051 37 5 8.0 12.0 0.00 0.00 0.00 76 1019.8
20200331163543 37 355 4.0 11.0 0.00 0.00 0.00 76 1019.8
20200331163051 37 54 6.0 11.0 0.00 0.00 0.00 76 1019.9
20200331162538 37 32 5.0 9.0 0.00 0.00 0.00 76 1020.0
20200331162038 37 44 4.0 11.0 0.00 0.00 0.00 76 1020.0
20200331161557 37 50 4.0 11.0 0.00 0.00 0.00 77 1020.0
20200331161039 36 5 6.0 13.0 0.00 0.00 0.00 77 1020.0
20200331160541 36 57 7.0 13.0 0.00 0.00 0.00 76 1020.0
20200331160056 36 18 7.0 12.0 0.00 0.00 0.00 76 1020.0
20200331155543 36 44 6.0 11.0 0.00 0.00 0.00 76 1020.1
20200331155033 36 28 6.0 11.0 0.00 0.00 0.00 76 1020.1
20200331154620 36 20 7.0 13.0 0.00 0.00 0.00 76 1020.1
20200331154032 36 46 6.0 12.0 0.00 0.00 0.00 76 1020.1
20200331153601 36 5 5.0 11.0 0.00 0.00 0.00 76 1020.1
20200331153111 36 13 7.0 11.0 0.00 0.00 0.00 76 1020.1
20200331152531 36 19 7.0 11.0 0.00 0.00 0.00 76 1020.1
20200331152033 36 5 5.0 12.0 0.00 0.00 0.00 76 1020.0
20200331151540 36 37 6.0 12.0 0.00 0.00 0.00 76 1020.0
20200331151028 36 355 5.0 11.0 0.00 0.00 0.00 76 1020.0
20200331150542 36 16 5.0 13.0 0.00 0.00 0.00 76 1019.9
20200331150056 36 28 6.0 12.0 0.00 0.00 0.00 76 1019.9
20200331145533 36 47 5.0 11.0 0.00 0.00 0.00 76 1020.0
20200331145027 36 13 4.0 11.0 0.00 0.00 0.00 77 1019.9
20200331144541 36 12 6.0 11.0 0.00 0.00 0.00 77 1019.9
20200331144029 36 38 5.0 11.0 0.00 0.00 0.00 77 1019.8
20200331143525 36 42 6.0 11.0 0.00 0.00 0.00 77 1019.8
20200331143041 35 24 4.0 11.0 0.00 0.00 0.00 77 1019.8
20200331142525 35 47 5.0 10.0 0.00 0.00 0.00 77 1019.8
20200331142022 35 5 6.0 10.0 0.00 0.00 0.00 77 1019.9
20200331141532 35 15 4.0 10.0 0.00 0.00 0.00 77 1019.9
20200331141021 35 18 6.0 11.0 0.00 0.00 0.00 77 1019.9
20200331140520 35 5 6.0 13.0 0.00 0.00 0.00 77 1019.9
20200331140027 35 355 7.0 13.0 0.00 0.00 0.00 77 1019.9
20200331135519 35 19 7.0 13.0 0.00 0.00 0.00 77 1019.9
20200331135018 35 31 5.0 14.0 0.00 0.00 0.00 77 1020.0
20200331134527 35 16 8.0 14.0 0.00 0.00 0.00 77 1020.1
20200331134031 35 55 5.0 13.0 0.00 0.00 0.00 77 1020.0
20200331133516 35 355 8.0 13.0 0.00 0.00 0.00 77 1020.0
20200331133038 35 17 6.0 13.0 0.00 0.00 0.00 77 1020.1
20200331132534 35 28 6.0 13.0 0.00 0.00 0.00 77 1020.0
20200331132015 35 38 7.0 13.0 0.00 0.00 0.00 77 1020.1
20200331131537 35 17 5.0 13.0 0.00 0.00 0.00 76 1020.1
20200331131030 35 360 8.0 13.0 0.00 0.00 0.00 76 1020.1
20200331130514 35 5 7.0 13.0 0.00 0.00 0.00 76 1020.1
20200331130020 35 24 9.0 13.0 0.00 0.00 0.00 76 1020.1
20200331125515 35 5 8.0 14.0 0.00 0.00 0.00 76 1020.1
20200331125012 35 15 6.0 14.0 0.00 0.00 0.00 76 1020.1
20200331124516 35 44 6.0 16.0 0.00 0.00 0.00 76 1020.1
20200331124011 35 14 7.0 16.0 0.00 0.00 0.00 76 1020.2
20200331123510 35 35 5.0 14.0 0.00 0.00 0.00 76 1020.3
20200331123011 35 33 6.0 13.0 0.00 0.00 0.00 76 1020.3
20200331122509 35 360 7.0 14.0 0.00 0.00 0.00 76 1020.4
20200331122012 35 14 8.0 14.0 0.00 0.00 0.00 76 1020.3
20200331121514 35 21 6.0 12.0 0.00 0.00 0.00 76 1020.3
20200331121015 35 12 8.0 12.0 0.00 0.00 0.00 76 1020.4
20200331120507 35 350 6.0 12.0 0.00 0.00 0.00 76 1020.3
20200331120012 35 18 7.0 12.0 0.00 0.00 0.00 76 1020.3
20200331115507 35 30 4.0 13.0 0.00 0.00 0.00 75 1020.2
20200331115010 35 5 6.0 13.0 0.00 0.00 0.00 75 1020.3
20200331114515 35 5 8.0 13.0 0.00 0.00 0.00 75 1020.4
20200331114020 35 51 7.0 11.0 0.00 0.00 0.00 75 1020.4
20200331113505 34 32 6.0 14.0 0.00 0.00 0.00 75 1020.4
20200331113009 34 24 8.0 14.0 0.00 0.00 0.00 75 1020.5
20200331112508 34 31 6.0 12.0 0.00 0.00 0.00 75 1020.3
20200331112021 34 9 6.0 14.0 0.00 0.00 0.00 75 1020.4
20200331111504 34 31 6.0 15.0 0.00 0.00 0.00 75 1020.3
20200331111003 34 32 8.0 15.0 0.00 0.00 0.00 75 1020.4
20200331110507 34 28 5.0 13.0 0.00 0.00 0.00 75 1020.3
20200331110003 34 46 6.0 13.0 0.00 0.00 0.00 74 1020.4
20200331105501 34 38 8.0 13.0 0.00 0.00 0.00 74 1020.4
20200331105001 34 28 8.0 13.0 0.00 0.00 0.00 74 1020.3
20200331104830 35 30 6.0 12.0 0.00 0.00 0.00 74 1020.4
20200331104106 35 323 5.0 11.0 0.00 0.00 0.00 74 1020.4
20200331103605 35 28 5.0 10.0 0.00 0.00 0.00 73 1020.5
20200331103124 35 58 5.0 11.0 0.00 0.00 0.00 73 1020.5
20200331102559 35 44 5.0 12.0 0.00 0.00 0.00 73 1020.4
20200331102058 35 355 6.0 12.0 0.00 0.00 0.00 73 1020.3
20200331101627 35 29 7.0 13.0 0.00 0.00 0.00 72 1020.5
20200331101058 34 46 6.0 13.0 0.00 0.00 0.00 72 1020.4
20200331100601 34 355 5.0 11.0 0.00 0.00 0.00 72 1020.4
20200331100127 34 44 7.0 12.0 0.00 0.00 0.00 72 1020.5
20200331095616 34 34 5.0 12.0 0.00 0.00 0.00 72 1020.5
20200331095056 34 303 6.0 11.0 0.00 0.00 0.00 72 1020.5
20200331094803 34 5 3.0 11.0 0.00 0.00 0.00 72 1020.5
20200331094103 34 38 4.0 9.0 0.00 0.00 0.00 72 1020.5
20200331093559 34 38 5.0 13.0 0.00 0.00 0.00 72 1020.5
20200331093316 34 27 4.0 12.0 0.00 0.00 0.00 72 1020.3
20200331092553 34 34 7.0 13.0 0.00 0.00 0.00 72 1020.6
20200331091052 34 342 5.0 10.0 0.00 0.00 0.00 72 1020.6
20200331090552 34 38 3.0 10.0 0.00 0.00 0.00 71 1020.8
20200331090133 34 43 5.0 12.0 0.00 0.00 0.00 71 1020.7
20200331085551 34 360 5.0 11.0 0.00 0.00 0.00 71 1020.8
20200331085108 34 355 5.0 13.0 0.00 0.00 0.00 71 1020.9
20200331084632 34 18 6.0 14.0 0.00 0.00 0.00 71 1020.8
20200331084050 34 19 7.0 14.0 0.00 0.00 0.00 71 1020.8
20200331083556 34 44 6.0 12.0 0.00 0.00 0.00 71 1020.9
20200331083051 34 30 7.0 12.0 0.00 0.00 0.00 71 1020.9
20200331082550 34 35 5.0 12.0 0.00 0.00 0.00 71 1020.8
20200331082054 34 32 8.0 12.0 0.00 0.00 0.00 71 1020.8
20200331081717 34 18 6.0 13.0 0.00 0.00 0.00 71 1020.9
20200331081054 34 5 7.0 13.0 0.00 0.00 0.00 71 1021.0
20200331080547 34 22 4.0 13.0 0.00 0.00 0.00 71 1021.1
20200331080111 34 5 7.0 12.0 0.00 0.00 0.00 72 1021.0
20200331075606 34 14 5.0 9.0 0.00 0.00 0.00 72 1021.1
20200331075045 34 16 5.0 14.0 0.00 0.00 0.00 71 1021.1
20200331074640 34 24 7.0 14.0 0.00 0.00 0.00 71 1021.0
20200331074053 34 337 6.0 11.0 0.00 0.00 0.00 71 1021.0
20200331073554 34 47 6.0 15.0 0.00 0.00 0.00 71 1021.1
20200331073121 35 50 8.0 15.0 0.00 0.00 0.00 71 1021.0
20200331072548 35 5 7.0 13.0 0.00 0.00 0.00 71 1021.1
20200331072105 35 5 8.0 14.0 0.00 0.00 0.00 71 1021.2
20200331071622 35 360 8.0 14.0 0.00 0.00 0.00 71 1021.2
20200331071048 35 44 5.0 13.0 0.00 0.00 0.00 71 1021.3
20200331070613 35 43 8.0 14.0 0.00 0.00 0.00 71 1021.4
20200331070205 35 36 8.0 14.0 0.00 0.00 0.00 71 1021.4
20200331065545 35 34 7.0 14.0 0.00 0.00 0.00 71 1021.5
20200331065056 35 18 7.0 14.0 0.00 0.00 0.00 71 1021.6
20200331064703 35 10 8.0 14.0 0.00 0.00 0.00 71 1021.6
20200331064041 35 26 7.0 14.0 0.00 0.00 0.00 71 1021.7
20200331063535 35 32 5.0 10.0 0.00 0.00 0.00 71 1021.8
20200331063041 35 5 6.0 10.0 0.00 0.00 0.00 71 1021.9
20200331062533 35 45 5.0 13.0 0.00 0.00 0.00 71 1022.1
20200331062034 35 40 8.0 13.0 0.00 0.00 0.00 71 1022.2
20200331061544 35 47 5.0 12.0 0.00 0.00 0.00 71 1022.4
20200331061036 35 32 5.0 12.0 0.00 0.00 0.00 71 1022.3
20200331060538 35 52 6.0 14.0 0.00 0.00 0.00 71 1022.3
20200331060107 35 48 6.0 14.0 0.00 0.00 0.00 71 1022.2
20200331055530 35 22 6.0 10.0 0.00 0.00 0.00 71 1022.2
20200331055039 35 5 4.0 11.0 0.00 0.00 0.00 71 1022.4